Location: Unspecified
(0.0000°N, 0.0000°E)
Time: 20:52:33
(UTC+00:00)

SR - Pass Details

Date: 20 June 2025
Orbit: 572 x 853 km, 66.7° (Epoch: 13 July)

Event Time Altitude Azimuth Distance (km) Brightness Sun altitude
Rises 14:55:55 0° 203° (SSW) 3,287 ? 41.7°
Reaches altitude 10° 14:58:17 10° 204° (SSW) 2,390 ? 41.2°
Maximum altitude 15:03:50 76° 289° (WNW) 862 ? 40.0°
Drops below altitude 10° 15:09:35 10° 15° (NNE) 2,469 ? 38.8°
Sets 15:12:04 0° 17° (NNE) 3,404 ? 38.2°
